TimeCDT,TemperatureF,Dew PointF,Humidity,Sea Level PressureIn,VisibilityMPH,Wind Direction,Wind SpeedMPH,Gust SpeedMPH,PrecipitationIn,Events,Conditions,WindDirDegrees,DateUTC
12:15 AM,68.0,60.8,78,30.12,10.0,South,15.0,-,N/A,,Scattered Clouds,180,2012-10-12 05:15:00
12:35 AM,68.0,60.8,78,30.12,10.0,South,12.7,17.3,N/A,,Scattered Clouds,180,2012-10-12 05:35:00
12:55 AM,68.0,60.8,78,30.12,10.0,South,12.7,-,N/A,,Clear,190,2012-10-12 05:55:00
1:15 AM,68.0,60.8,78,30.12,10.0,South,12.7,-,N/A,,Scattered Clouds,180,2012-10-12 06:15:00
1:35 AM,68.0,60.8,78,30.11,10.0,South,13.8,-,N/A,,Clear,170,2012-10-12 06:35:00
1:55 AM,68.0,60.8,78,30.11,10.0,South,12.7,-,N/A,,Scattered Clouds,180,2012-10-12 06:55:00
2:15 AM,66.2,60.8,83,30.10,10.0,South,11.5,-,N/A,,Clear,190,2012-10-12 07:15:00
2:35 AM,66.2,60.8,83,30.11,10.0,South,11.5,-,N/A,,Clear,190,2012-10-12 07:35:00
2:55 AM,64.4,60.8,88,30.12,10.0,South,10.4,-,N/A,,Clear,190,2012-10-12 07:55:00
3:15 AM,62.6,59.0,88,30.12,10.0,South,9.2,-,N/A,,Clear,190,2012-10-12 08:15:00
3:35 AM,62.6,59.0,88,30.12,10.0,SSW,10.4,-,N/A,,Clear,200,2012-10-12 08:35:00
3:55 AM,64.4,60.8,88,30.11,10.0,SSW,12.7,-,N/A,,Clear,210,2012-10-12 08:55:00
4:15 AM,64.4,60.8,88,30.12,10.0,SW,12.7,-,N/A,,Clear,220,2012-10-12 09:15:00
4:35 AM,64.4,60.8,88,30.12,10.0,SW,10.4,-,N/A,,Clear,230,2012-10-12 09:35:00
4:55 AM,62.6,60.8,94,30.12,10.0,West,8.1,-,N/A,,Clear,260,2012-10-12 09:55:00
5:15 AM,62.6,60.8,94,30.14,10.0,NW,12.7,-,N/A,,Mostly Cloudy,310,2012-10-12 10:15:00
5:35 AM,57.2,50.0,77,30.16,10.0,North,12.7,17.3,N/A,,Overcast,350,2012-10-12 10:35:00
5:55 AM,55.4,46.4,72,30.17,10.0,North,16.1,-,N/A,,Overcast,360,2012-10-12 10:55:00
6:15 AM,53.6,42.8,67,30.18,10.0,North,13.8,-,N/A,,Overcast,360,2012-10-12 11:15:00
6:35 AM,53.6,39.2,58,30.18,10.0,North,15.0,-,N/A,,Overcast,360,2012-10-12 11:35:00
6:55 AM,51.8,37.4,58,30.18,10.0,North,15.0,-,N/A,,Overcast,360,2012-10-12 11:55:00
7:15 AM,50.0,35.6,58,30.21,10.0,North,11.5,-,N/A,,Overcast,350,2012-10-12 12:15:00
7:35 AM,50.0,35.6,58,30.19,10.0,North,12.7,-,N/A,,Overcast,360,2012-10-12 12:35:00
7:55 AM,50.0,35.6,58,30.21,10.0,North,12.7,-,N/A,,Mostly Cloudy,350,2012-10-12 12:55:00
8:15 AM,48.2,35.6,62,30.21,10.0,North,12.7,-,N/A,,Mostly Cloudy,350,2012-10-12 13:15:00
8:55 AM,48.2,35.6,62,30.23,10.0,North,11.5,-,N/A,,Overcast,350,2012-10-12 13:55:00
9:15 AM,48.2,35.6,62,30.25,10.0,North,9.2,-,N/A,,Overcast,350,2012-10-12 14:15:00
9:35 AM,48.2,33.8,58,30.26,10.0,NNW,8.1,-,N/A,,Overcast,340,2012-10-12 14:35:00
9:55 AM,48.2,33.8,58,30.25,10.0,North,8.1,-,N/A,,Overcast,360,2012-10-12 14:55:00
10:15 AM,48.2,35.6,62,30.28,10.0,NW,9.2,-,N/A,Rain,Light Rain,310,2012-10-12 15:15:00
10:35 AM,50.0,35.6,58,30.26,10.0,NNW,10.4,-,N/A,,Mostly Cloudy,330,2012-10-12 15:35:00
10:55 AM,50.0,35.6,58,30.27,10.0,NNW,9.2,-,N/A,,Scattered Clouds,330,2012-10-12 15:55:00
11:15 AM,51.8,35.6,54,30.24,10.0,NNW,9.2,-,N/A,,Clear,330,2012-10-12 16:15:00
11:55 AM,50.0,35.6,58,30.21,10.0,NNW,16.1,-,N/A,,Scattered Clouds,340,2012-10-12 16:55:00
12:15 PM,50.0,35.6,58,30.24,10.0,NW,10.4,-,N/A,,Mostly Cloudy,320,2012-10-12 17:15:00
12:35 PM,50.0,37.4,62,30.19,10.0,NNE,11.5,-,N/A,,Mostly Cloudy,30,2012-10-12 17:35:00
12:55 PM,51.8,37.4,58,30.13,10.0,ENE,16.1,-,N/A,,Scattered Clouds,60,2012-10-12 17:55:00
1:35 PM,55.4,41.0,58,30.19,10.0,Calm,Calm,-,N/A,,Scattered Clouds,0,2012-10-12 18:35:00
1:55 PM,53.6,44.6,72,30.17,7.0,North,5.8,-,N/A,Rain,Light Rain,10,2012-10-12 18:55:00
2:35 PM,55.4,44.6,67,30.16,10.0,ESE,6.9,-,N/A,,Overcast,110,2012-10-12 19:35:00
2:55 PM,55.4,44.6,67,30.14,10.0,ESE,10.4,-,N/A,,Mostly Cloudy,110,2012-10-12 19:55:00
3:15 PM,59.0,44.6,59,30.14,10.0,ENE,3.5,-,N/A,,Mostly Cloudy,60,2012-10-12 20:15:00
3:55 PM,60.8,44.6,55,30.13,10.0,Calm,Calm,-,N/A,,Mostly Cloudy,0,2012-10-12 20:55:00
4:15 PM,60.8,46.4,59,30.13,10.0,ESE,3.5,-,N/A,,Overcast,120,2012-10-12 21:15:00
4:35 PM,62.6,46.4,55,30.12,10.0,SE,4.6,-,N/A,,Overcast,140,2012-10-12 21:35:00
4:55 PM,62.6,50.0,63,30.12,10.0,SSE,6.9,-,N/A,,Overcast,150,2012-10-12 21:55:00
5:35 PM,62.6,51.8,68,30.09,10.0,SE,10.4,-,N/A,,Overcast,140,2012-10-12 22:35:00
6:15 PM,60.8,51.8,72,30.08,10.0,SE,8.1,-,N/A,,Overcast,140,2012-10-12 23:15:00
6:35 PM,60.8,51.8,72,30.08,10.0,SE,9.2,-,N/A,,Overcast,140,2012-10-12 23:35:00
6:55 PM,60.8,51.8,72,30.06,10.0,ESE,12.7,-,N/A,,Overcast,120,2012-10-12 23:55:00
7:15 PM,59.0,51.8,77,30.03,10.0,SE,11.5,-,N/A,,Overcast,130,2012-10-13 00:15:00
7:55 PM,57.2,51.8,82,30.04,10.0,SE,12.7,-,N/A,,Scattered Clouds,140,2012-10-13 00:55:00
8:15 PM,57.2,51.8,82,30.04,10.0,SE,13.8,-,N/A,,Scattered Clouds,140,2012-10-13 01:15:00
8:35 PM,59.0,53.6,82,30.09,10.0,South,16.1,-,N/A,Thunderstorm,Thunderstorm,180,2012-10-13 01:35:00
8:55 PM,55.4,53.6,94,30.03,10.0,SE,19.6,24.2,N/A,Thunderstorm,Thunderstorm,130,2012-10-13 01:55:00
9:15 PM,53.6,51.8,94,30.03,7.0,SE,21.9,-,N/A,,Clear,140,2012-10-13 02:15:00
9:55 PM,57.2,55.4,94,30.02,7.0,SSE,19.6,29.9,N/A,,Scattered Clouds,150,2012-10-13 02:55:00
10:15 PM,57.2,55.4,94,30.02,7.0,SSE,18.4,25.3,N/A,,Scattered Clouds,150,2012-10-13 03:15:00
11:35 PM,64.4,60.8,88,30.00,10.0,SSE,27.6,35.7,N/A,,Light Drizzle,160,2012-10-13 04:35:00
11:55 PM,64.4,60.8,88,29.99,10.0,South,29.9,36.8,N/A,,Scattered Clouds,170,2012-10-13 04:55:00